Dewpoint
50 50 50 50 50 50 50 50 50 50 49 49 49 49 49 50 49 36 24 30 37 51 49 33 39 34 33 28 29 26 20 17 16 14 13 17 16 21 22 22 22 24 26 37 52
48 49 49 49 49 49 49 49 50 49 49 49 48 48 49 50 40 27 37 49 52 51 28 30 26 31 29 28 27 24 20 20 19 19 18 16 17 18 19 18 21 23 30 42 51
47 48 48 49 48 48 48 49 49 49 48 48 48 48 50 46 24 3 52 55 55 54 31 29 21 28 27 27 27 26 21 23 22 20 19 17 17 19 18 14 19 22 24 29 40
47 48 48 48 48 48 49 50 49 49 48 48 48 47 49 38 -2 28 45 44 51 40 34 26 29 30 24 25 27 25 23 24 23 22 20 19 18 18 19 20 20 23 28 30 31
48 48 48 48 48 48 48 50 48 48 48 48 48 47 41 32 28 15 47 39 25 35 28 24 22 22 20 18 22 25 26 24 26 24 23 23 22 22 22 24 27 26 28 30 31
48 47 47 47 47 47 47 48 49 48 48 48 48 47 38 31 28 26 27 26 22 37 23 25 22 22 20 18 19 22 23 24 25 26 25 26 24 25 26 29 28 29 28 27 29
46 46 46 46 46 46 46 47 48 48 48 48 48 42 35 32 31 27 28 24 25 28 30 27 25 25 23 21 21 20 19 19 20 21 21 22 21 21 21 23 24 24 25 26 29
46 46 46 46 46 47 47 47 47 47 47 47 47 42 34 33 31 30 29 28 27 26 26 30 29 30 26 25 23 20 20 17 19 20 21 22 21 24 26 27 27 28 28 30 30
44 44 45 46 46 47 48 47 47 46 46 48 42 40 28 34 31 30 28 24 22 25 25 20 22 26 27 24 20 21 17 19 21 24 23 22 21 22 24 25 26 28 28 28 29
44 44 44 45 46 46 47 47 45 44 40 40 40 38 35 24 28 34 36 31 30 27 24 20 16 15 22 18 15 16 19 21 22 23 25 24 23 24 26 27 28 28 29 29 29
44 44 44 44 44 46 42 32 28 27 32 27 21 32 30 28 30 30 35 36 33 25 8 12 11 12 12 19 18 16 14 13 14 21 23 23 22 22 24 27 28 28 28 28 28
44 44 44 44 44 44 39 31 34 36 32 27 26 27 26 24 22 26 32 32 29 21 8 10 12 10 12 14 19 19 20 15 12 22 24 20 19 20 21 22 23 21 19 19 20
43 44 44 44 44 40 35 33 36 38 29 22 21 25 24 26 22 23 27 31 25 18 12 12 7 10 13 15 17 21 21 19 12 14 19 18 14 13 13 11 11 12 15 16 21
43 43 43 44 40 38 33 36 38 40 26 13 27 31 33 28 27 25 24 28 26 20 14 12 15 12 16 16 17 15 16 14 17 23 12 10 3 7 9 12 14 17 22 25 34
42 43 43 44 40 35 34 39 40 39 9 20 32 39 37 29 23 21 23 22 21 22 22 18 14 18 17 15 15 14 13 15 17 16 13 6 4 3 14 11 15 20 27 37 40
42 43 43 40 40 37 39 40 39 28 12 21 25 31 36 29 25 26 25 23 18 19 22 19 25 17 15 19 17 18 17 16 15 13 9 8 3 4 10 14 19 30 37 39 41
43 44 41 39 35 40 41 36 27 15 19 18 18 31 33 31 24 22 23 19 10 13 15 15 20 22 26 21 22 15 17 18 18 16 11 14 11 10 17 22 25 32 35 37 39
43 42 39 37 39 41 38 33 16 21 18 18 18 26 31 33 31 20 16 19 24 15 5 11 12 17 21 22 19 17 18 12 11 14 13 18 14 13 18 28 35 33 34 36 37
43 39 38 40 42 40 30 24 17 22 15 15 15 20 26 26 33 31 31 30 30 32 15 9 6 12 14 18 18 19 19 18 19 19 18 15 19 27 32 33 35 33 33 34 37
36 35 35 43 44 35 29 16 17 20 18 15 15 20 25 24 29 33 31 34 33 33 34 24 14 10 12 12 13 15 17 18 18 9 6 4 11 12 29 30 33 32 32 36 39
35 26 34 41 42 29 24 13 15 18 23 21 20 20 21 19 23 31 31 34 35 33 34 32 23 22 20 16 11 12 17 18 16 15 7 7 12 22 23 28 30 31 35 39 43
34 30 35 41 32 34 24 22 26 22 24 25 25 21 22 24 22 22 24 30 33 37 36 34 32 21 19 28 19 10 11 16 15 13 16 13 11 29 32 32 34 36 40 42 44
31 26 35 40 28 22 23 23 25 24 23 26 25 26 26 24 22 23 24 30 31 34 37 35 30 18 19 26 27 24 22 16 19 21 18 19 20 33 35 35 39 40 41 42 44
35 31 26 34 31 25 22 22 23 26 26 25 26 24 25 23 23 23 25 27 29 35 39 37 30 27 19 22 25 25 25 24 23 20 17 16 17 27 30 34 38 41 44 43 43
36 30 26 28 27 22 23 22 22 22 23 25 23 21 22 22 23 22 25 26 27 36 37 36 28 29 26 27 28 26 24 23 21 22 21 17 19 25 34 37 40 41 40 41 40
34 33 27 23 23 24 21 19 19 22 19 20 24 23 22 24 26 25 25 26 26 30 31 37 29 29 25 25 27 25 23 23 22 23 23 23 23 35 39 39 39 39 39 39 38
33 32 29 24 21 21 20 19 20 21 19 21 22 22 23 24 28 29 31 31 30 30 30 33 31 26 20 23 23 21 22 22 24 28 29 25 32 35 36 38 38 38 37 36 36
Lifted_Index
14 15 15 14 15 15 15 15 15 15 15 15 15 15 15 15 15 14 13 13 12 12 12 11 10 9 9 9 8 7 6 6 6 5 5 6 6 7 7 7 7 7 6 4 2
15 15 15 15 15 15 15 15 15 15 15 15 15 15 15 15 14 14 13 12 11 11 11 10 10 9 9 9 8 7 6 6 6 6 5 6 7 7 7 7 7 7 6 5 3
16 16 15 15 15 14 14 14 14 14 14 14 15 15 14 14 13 13 12 10 9 10 10 10 10 9 8 8 7 7 6 6 6 6 6 6 7 7 8 8 7 7 7 6 5
16 16 15 15 15 14 14 14 13 14 13 14 14 14 14 13 12 12 12 11 10 10 10 10 9 8 7 7 7 6 6 7 7 6 6 6 7 7 7 7 7 7 7 7 6
15 15 15 15 14 14 14 13 13 13 13 13 13 14 13 13 12 13 13 13 12 11 10 10 9 8 7 7 7 7 7 7 7 7 6 6 6 6 7 7 6 6 7 6 6
15 15 15 14 14 14 13 13 13 13 13 12 12 13 13 12 12 13 14 14 13 11 10 10 9 9 8 8 8 7 7 7 8 7 7 6 5 6 6 6 6 6 6 6 6
14 14 14 14 13 13 13 13 12 12 12 12 12 12 12 12 13 13 13 13 13 11 10 10 9 9 9 8 8 8 7 7 7 7 7 6 5 5 6 6 5 5 5 5 5
13 13 13 12 12 12 12 12 12 12 12 11 11 11 12 13 13 13 13 12 12 12 11 10 9 9 8 8 8 8 7 6 7 7 7 6 5 5 5 5 5 5 5 5 5
12 12 12 11 11 11 12 12 12 12 12 11 11 11 12 12 13 12 11 11 11 11 11 11 10 9 8 7 6 6 6 5 6 6 6 6 5 5 5 5 5 5 5 5 5
12 11 11 11 11 12 12 12 12 13 12 12 12 12 12 12 12 11 10 9 10 10 10 10 9 8 7 6 5 5 6 6 6 6 6 6 5 5 5 5 5 5 5 5 5
11 11 11 12 12 12 12 13 13 13 13 12 12 12 12 12 11 10 9 8 8 8 8 8 7 6 6 6 6 6 6 6 7 6 6 6 5 5 5 6 6 6 5 5 5
11 11 11 12 12 12 12 12 12 12 11 10 9 9 9 10 10 9 8 7 7 7 7 7 6 6 7 7 7 7 6 6 6 6 6 6 6 6 6 7 7 6 6 6 6
11 11 11 11 11 11 11 10 10 9 8 6 5 5 5 7 7 6 5 5 4 5 6 6 6 7 7 7 7 6 6 6 6 6 6 6 6 6 7 7 7 7 7 7 7
11 11 11 11 10 9 9 8 7 6 5 3 2 1 2 3 4 3 3 3 2 3 4 5 6 6 6 6 6 6 6 6 6 6 6 5 5 6 7 7 7 7 6 6 5
11 11 11 10 9 8 7 7 5 4 2 2 2 1 1 1 1 1 2 2 2 2 3 4 5 6 5 5 5 5 6 6 6 6 5 5 5 5 6 6 6 5 5 4 4
11 11 10 9 8 7 6 5 3 2 1 2 2 2 0 0 0 1 1 2 2 2 2 3 4 4 4 4 5 5 5 4 4 4 4 4 4 4 5 5 5 4 3 3 3
11 10 9 8 8 7 5 3 2 1 2 3 3 2 1 -0 -0 1 1 2 2 2 2 2 2 3 3 3 4 4 3 2 2 2 2 3 3 4 4 4 3 3 3 3 3
10 10 9 8 7 6 4 2 1 1 2 3 3 3 1 -0 -0 0 1 1 1 1 2 2 2 3 3 2 2 3 2 1 0 0 1 2 2 3 3 3 2 2 3 3 3
10 9 8 8 7 6 4 2 2 2 3 3 3 2 1 0 -0 0 0 0 1 1 1 1 2 2 3 2 2 2 1 1 0 0 0 1 2 2 2 2 2 2 3 3 3
9 9 8 7 6 5 4 3 3 3 3 3 2 2 2 1 1 1 0 0 0 0 -0 0 1 1 2 2 2 2 1 1 0 0 0 1 1 2 2 2 2 2 3 3 3
8 8 8 7 5 4 4 3 4 4 3 3 2 2 2 2 2 2 1 1 1 0 -0 -1 -0 0 0 1 2 2 1 1 1 1 1 1 1 2 2 2 2 2 2 2 2
8 8 7 6 5 4 4 4 4 3 3 3 2 2 2 2 2 2 2 2 2 1 -0 -0 -1 -1 -0 -0 1 1 1 1 1 1 1 1 1 1 1 1 1 1 2 2 2
8 8 7 6 5 4 4 3 3 3 3 3 2 3 3 3 2 2 2 2 2 1 0 -0 -0 -0 -0 -1 -0 -0 0 1 1 1 1 1 0 0 1 1 1 1 1 2 2
8 8 7 6 5 5 4 3 3 3 3 3 3 3 3 3 2 2 2 2 2 1 0 -0 -0 -0 -0 -1 -1 -1 -0 0 1 1 1 0 0 0 1 1 1 1 2 3 4
8 8 7 6 6 5 5 4 3 3 3 3 3 3 3 3 2 2 3 2 2 1 1 0 -0 -0 -0 -0 -0 -0 -0 0 0 1 1 1 1 1 1 1 1 2 3 4 4
8 8 7 7 6 6 5 5 4 4 4 3 3 3 3 3 2 2 2 2 2 1 1 1 0 0 0 0 0 0 0 0 1 1 0 0 1 1 1 1 2 2 3 3 4
8 8 7 7 6 6 6 5 4 4 4 4 4 4 3 3 2 2 2 2 2 1 1 1 1 1 1 1 1 1 1 1 1 0 0 0 0 1 1 2 2 2 2 2 3